Location: Alvediston
(51.0078°N, 2.0364°W)
Time: 17:09:08
(UTC+00:00)

STARLINK-68 - Pass Details

Date: 27 February 2020
Orbit: 529 x 530 km, 53.0° (Epoch: 07 April)

Event Time Altitude Azimuth Distance (km) Brightness Sun altitude
Rises 19:17:25 0° 278° (W) 2,671 9.0 -15.3°
Reaches altitude 10° 19:19:39 10° 281° (W) 1,781 7.6 -15.7°
Maximum altitude 19:23:39 65° 3° (N) 587 3.7 -16.3°
Enters shadow 19:25:19 33° 76° (ENE) 910 4.2 -16.6°
